Погода в Смоленске

Хотите узнать прогноз погоды в Смоленске? Тогда Вам сюда: Погода в Смоленске

Поиск расширенной информации на нашем сайте:

Полезная информация:

Новости сайта



14.11.2019
Обновлён Долгосрочный прогноз погоды по России и другим странам хСССР на ноябрь-декабрь 2019 года.
Опубликованы прогностические карты: Предварительный прогноз на декабрь 2019 года, Предварительный прогноз на январь 2020 года, Предварительная схема синоптических процессов на декабрь 2019 г..

11.11.2019
Обновлены Долгосрочный прогноз погоды по России и другим странам хСССР на ноябрь-декабрь 2019 года и Предварительный прогноз на зиму 2019/2020 годов

04.11.2019
Опубликован Долгосрочный прогноз погоды по России и другим странам хСССР на ноябрь 2019 года
Сравнение прогнозируемой аномалии приземной температуры воздуха на ноябрь 2019 года по разным моделям
Предварительный прогноз на зиму 2019/2020 года




Погода в Смоленске - сегодня

Время (UTC), дата Ветер
(°,м/с) 
Видим.   Явления Облачность Т
(°С)
Тd
(°С)
f(%) Тe
(°С)
Pmin
(гПа)
dP
(гПа)
Po
(мм)
O2
(г/м3)
Тmin Tmax R s Состояние
почвы
00 20.11.19 110 (В) 4000 м  слаб. морось  10/10 100 м 
[St]
+0.9 +0.7 99 1032.8  0.5  752  302           
03 20.11.19 100 (В) 4000 м  слаб. морось  10/10 100 м 
[St]
+0.6 +0.5 99 -1  1033.9  753  303  +0.6    0.4     
06 20.11.19 090 (В) 4000 м  дымка{снег, морось}  10/10 300 м 
[Ns]
-0.1 -0.3 99 -1  1035.3  1.3  754  304  -0.1    0.4     
09 20.11.19 120 (ЮВ) 4000 м  дымка  10/10 300 м 
[Ns]
+0.8 -0.2 93 -1  1036.2  754  303           
12 20.11.19 120 (ЮВ) 4000 м  дымка  10/10 300 м 
[Ns]
+1.9 +0.4 90 1036.9  0.8  755  302           
15 20.11.19 110 (В) 4000 м  дымка  10/10 300 м 
[Ns]
+2.5 +1.8 95 +1  1037.5  0.6  755  301      0.4     
18 20.11.19 120 (ЮВ) 4000 м  слаб. морось  10/10 100 м 
[St]
+3.9 +3 94 +2  1037.9  0.6  756  300    +3.9  0.0     
21 20.11.19 120 (ЮВ) 4000 м  дымка{морось}  9/9 200 м 
[St]
+4.1 +1.7 84 +2  1039.1  1.2  757  300           
00 21.11.19 110 (В) 4000 м  дымка{ливн. осадки, морось}  9/9 300 м кучево-дожд. 
[Cb cap]
+2.6 +1.2 90 +1  1040.6  1.2  758  302           
03 21.11.19 110 (В) 4000 м  дымка  9/9 300 м 
[Sc diur, vesp]
+1 -0.6 89 -1  1041.6  0.8  758  304  +1    0.6     
06 21.11.19 120 (ЮВ) 4000 м  дымка  10/10 600 м 
[Sc]
-0.1 -1.3 92 -1  1042.4  0.7  759  306  -0.6    0.6     
09 21.11.19 110 (В) 10 км    10/10 600 м 
[Sc]
-0.7 -3 84 -4  1043  0.5  759  307           
12 21.11.19 130 (ЮВ) 20000 м    4/3 600 м верхняя 
[Sc|Ci fib]
-2.5 -6.6 73 -5  1042.6  -0.6  759  309           
15 21.11.19 130 (ЮВ) 10 км    10/10 600 м 
[Sc]
-4.7 -8 78 -9  1043.7  0.8  759  312           
18 21.11.19 130 (ЮВ) 3{10}  10 км    ясно 
-6.6 -9 83 -9  1043.9  759  314    +0.5       
21 21.11.19 130 (ЮВ) 10 км    ясно 
-7.6 -9.8 84 -10  1043.9  0.1  759  316           
00 22.11.19 140 (ЮВ) 10 км    ясно 
-8.7 -11.4 81 -10  1044.1  759  317           
03 22.11.19 130 (ЮВ) 10 км    ясно 
-9.6 -12.6 79 -11  1043.9  -0.3  759  318  -9.6         
06 22.11.19 130 (ЮВ) 10 км    5/0 верхняя 
[Ci fib]
-10.3 -12.9 81 -13  1044.7  0.7  760  319  -10.3         
09 22.11.19 140 (ЮВ) 10 км    9/0 верхняя 
[Ci fib]
-5.5 -12.3 59 -8  1043.8  -0.3  759  313           
12 22.11.19 140 (ЮВ) 10 км    3/0 верхняя 
[Ci fib]
-3.1 -13.9 43 -5  1041.9  -1.6  758  310           
15 22.11.19 120 (ЮВ) 10 км    ясно 
-6 -12.6 60 -9  1041.7  -0.5  758  313           
18 22.11.19 130 (ЮВ) 10 км    ясно 
-7.3 -13 64 -10  1041.5  -0.3  758  315    -3.1       
21 22.11.19 130 (ЮВ) 10 км    ясно 
-8.5 -12.6 72 -10  1041.6  0.1  757  316           
00 23.11.19 120 (ЮВ) 10 км    ясно 
-9.6 -12.4 80 -11  1041.2  -0.5  757  317           
Время (UTC), дата Ветер
(°,м/с) 
Видим.   Явления Облачность Т
(°С)
Тd
(°С)
f(%) Тe
(°С)
Pmin
(гПа)
dP
(гПа)
Po
(мм)
O2
(г/м3)
Тmin Tmax R s Состояние
почвы

Для получения пояснительной информации подведите курсор к названию столбца.

ПОГОДА в Смоленске - архив

Всё, что Вы хотите узнать о погоде в Смоленске - удобно и подробно!

Выберите нужную дату (начиная с 1 января 2019* года) и нажмите кнопку "Найти".
Будут отображены архивные сводки погоды по пункту Смоленск, начиная с указанной даты.


Отображать данные в формате CSV (для использования в таблицах Excel)


Внимание! Наш архив погоды предназначен исключительно для личного некоммерческого использования в познавательных целях. Если Вам необходимы официальные справки о состоянии погоды (для производственных, юридических, коммерческих и т.п. целей), обращайтесь в органы Росгидромета.

*Примечание: данная дата относится к архиву по метеостанциям СССР (Россия, СНГ, Балтия).
Архив по метеостанциям Зарубежной Европы и Азии (кроме Китая) хранится 10 дней, по другим регионам земного шара (Китай, Африка, Америка, Австралия, Океания) - 1 день.

Смоленск - район местоположения метеостанции


Название, широта, долгота, высота метеостанции:
Смоленск 54.8°ш. 32.1°д. 239 м над ур. моря [Российская Федерация]

Дополнительная информация

В oтличие oт бoльшинства пoгoдных сайтoв мы публикуем пoдрoбную метеoинфoрмацию в детальнoм прoфессиoнальнoм фoрмате.

Характеристики температуры и влажнoсти вoздуха измеряются на высoте 2 м в тени вдали oт зданий и деревьев.
Скoрoсть ветра измеряется на высoте 10 м (на урoвне рoста челoвека скoрoсть ветра ниже в 1.5-2 раза). Если метеoстанция нахoдится в гoрoде или в лесу, тo скoрoсть ветра занижена на 2-4 м/с пo сравнению с oткрытым местoм. Скoрoсть ветра над акватoриями крупных рек и oзёр, а также на вершинах хoлмoв на 2-5 м/с выше, чем в oбычных услoвиях.
Атмoсфернoе давление в разных тoчках местнoсти мoжет значительнo oтличаться oт давления на метеoстанции, в зависимoсти oт услoвий рельефа (при пoдъёме на 10 м давление пoнижается примернo на 1 мм рт.ст.).